www.pogodaiklimat.ru

Погода и климат >> Архив погоды >> Россия >> Курганская область >> Шадринск


АРХИВ ПОГОДЫ в Шадринске

Время (UTC), дата Ветер
(напр.,м/с)
 
Видим.   Явления Облачность Т
(С)
Тd
(С)
f
(%)
Тe
(С)
Тes
(С)
Комфортность P
(гПа)
Po
(гПа)
Тmin
(С)
Tmax
(С)
R
(мм)
R24
(мм)
S
(см)
18 18.06 ЮЗ 1 10 км 4/3 600 м
[Sc Ci sp]
+9.0 +4.7 74 +9 +9 1009.0 998.2
21 18.06 ЮЗ 1 10 км 4/3 600 м
[Sc Ci sp]
+6.1 +4.1 87 +5 +5 1009.4 998.5
00 19.06 ЮЗ 1 10 км 6/6 600 м
[Cb cap]
+8.6 +4.4 75 +8 +8 1009.8 999.0
03 19.06 З 3 10 км 4/4 600 м
[Cb cap]
+14.4 +6.4 59 +14 +16 1010.2 999.6 +5.8
06 19.06 З 3 10 км 3/3 600 м
[Cu hum]
+20.3 +5.5 38 +21 +29 комфорт 1010.0 999.6
09 19.06 З 3 10 км 6/4 600 м
[Cu med, cong Ci sp]
+22.3 +5.0 32 +23 +29 комфорт 1009.9 999.6
12 19.06 ЮЗ 4 10 км 4/3 600 м
[Cu hum Ci sp]
+22.5 +4.3 30 +23 +26 комфорт 1009.7 999.4
15 19.06 ЮЗ 2 10 км 6/3 600 м
[Sc Ci sp]
+21.2 +4.8 34 +22 +22 комфорт 1009.8 999.4 +22.8
18 19.06 Ю 2 10 км 8/6 600 м
[Sc Ci sp]
+16.6 +5.3 47 +17 +17 1010.2 999.7
21 19.06 З 1 10 км 8/6 600 м
[Sc Ci sp]
+15.2 +5.8 53 +16 +16 1010.3 999.8
00 20.06 ЮВ 1 10 км слаб. ливневой дождь 10/10 600 м
[Cb cap]
+13.1 +10.1 82 +13 +13 1011.0 1000.3
03 20.06 ЮЗ 1 10 км {ливн. осадки} 6/4 600 м
[Sc Ci sp]
+16.8 +10.4 66 +18 +21 1011.7 1001.2 +12.7 1
06 20.06 З 3 10 км {ливн. осадки} 9/3 600 м
[Cu hum Ac trans Ci sp]
+22.6 +12.4 52 +25 +30 комфорт 1011.5 1001.2
09 20.06 З 4 10 км 9/8 600 м
[Cb cap Ci sp]
+26.0 +10.7 38 +27 +29 жарко 1010.3 1000.1
12 20.06 ЮЗ 3
{12}
10 км {гроза, ливн. осадки} 9/3 600 м
[Cb cap Ci sp]
+24.9 +11.4 43 +26 +30 жарко 1009.7 999.5
15 20.06 ЮЗ 2 10 км 9/3 600 м
[Sc Ci sp]
+24.1 +12.0 47 +26 +26 жарко 1008.5 998.2 +26.2 2
18 20.06 ЮЗ 3 10 км 9/8 600 м
[Cb cap Ci sp]
+20.7 +10.9 53 +23 +23 комфорт 1008.5 998.2
21 20.06 СЗ 3 10 км 9/9 600 м
[Cb cap]
+20.0 +11.6 58 +22 +22 комфорт 1008.5 998.2
00 21.06 штиль 0 10 км 9/8 600 м
[Cb cap Ci sp]
+15.6 +11.6 77 +15 +16 1009.2 998.6
03 21.06 СЗ 2 10 км 9/8 600 м
[Cb cap Ci sp]
+17.9 +11.4 66 +18 +19 1010.6 1000.1 +15.5
06 21.06 СЗ 4 10 км 3/3 600 м
[Cu Sc]
+21.4 +7.6 41 +22 +29 комфорт 1011.0 1000.7
09 21.06 З 4
{10}
10 км 8/6 600 м
[Cu med, cong Ci sp]
+23.6 +6.0 32 +24 +27 комфорт 1010.9 1000.6
12 21.06 З 4
{11}
10 км 9/6 600 м
[Cb cap Ci sp]
+23.8 +4.9 29 +24 +25 комфорт 1010.6 1000.3
15 21.06 СЗ 5 10 км 4/3 600 м
[Sc Ci sp]
+21.6 +3.7 31 +22 +22 комфорт 1011.2 1000.8 +24.7
18 21.06 С 3
{13}
10 км 4/4 600 м
[Cb cap]
+15.0 +2.6 43 +14 +14 1015.3 1004.6
21 21.06 СЗ 1 10 км 3/0
[Ci sp]
+10.7 +2.1 55 +11 +11 1016.8 1006.0
00 22.06 З 1 10 км 4/3 600 м
[Sc Ci sp]
+6.9 +3.2 77 +6 +6 1018.5 1007.5
03 22.06 З 2 10 км 3/3 600 м
[Sc]
+12.4 +4.2 57 +12 +16 1019.2 1008.4 +6.6
06 22.06 СЗ 4 10 км 3/3 600 м
[Cu hum]
+18.1 +1.5 33 +18 +25 1018.8 1008.2
09 22.06 СЗ 4
{11}
10 км 6/4 600 м
[Cu med, cong Ci sp]
+20.1 +2.3 31 +21 +26 комфорт 1018.2 1007.7
12 22.06 СЗ 4
{10}
10 км 6/4 600 м
[Cu med, cong Ci sp]
+21.5 +2.3 28 +21 +24 комфорт 1017.5 1007.1
15 22.06 С 2 10 км 8/3 600 м
[Sc Ci sp]
+21.2 +2.3 29 +21 +22 комфорт 1017.0 1006.6 +21.5
18 22.06 Ю 2 10 км 6/6 600 м
[Sc]
+16.0 +5.2 49 +16 +16 1016.9 1006.3
21 22.06 З 1 10 км 8/8 600 м
[Cb cap]
+15.5 +6.9 57 +16 +16 1015.9 1005.3
00 23.06 ЮЗ 2 10 км 8/8 600 м
[Cb cap]
+15.8 +6.6 54 +16 +16 1014.3 1003.7
03 23.06 З 3 10 км 9/9 600 м
[Cb cap]
+17.7 +9.6 59 +18 +18 1013.1 1002.6 +14.3
06 23.06 ЮЗ 4 10 км {ливн. осадки} 9/6 600 м
[Cb cap Ac trans]
+18.9 +13.9 73 +20 +22 1012.1 1001.6
09 23.06 ЮЗ 3 10 км в посл. час ливневой дождь 9/9 600 м
[Cb cap]
+19.9 +14.5 71 +22 +23 комфорт 1010.6 1000.2
12 23.06 ЮЗ 2 10 км в посл. час ливневой дождь 9/9 600 м
[Cb cap]
+23.7 +16.7 65 +27 +28 жарко 1008.7 998.4
15 23.06 З 2 10 км слаб. ливневой дождь 10/10 600 м
[Cb cap]
+20.3 +18.3 88 +24 +24 комфорт 1008.6 998.3 +25.9 3
18 23.06 З 1 10 км {гроза, ливн. осадки} 9/8 600 м
[Cb cap Ci sp]
+18.7 +17.7 94 +21 +21 комфорт 1008.5 998.1
21 23.06 З 2 4000 м дымка ясно +17.9 +16.8 93 +18 +18 1008.9 998.4
00 24.06 З 2 4000 м дымка ясно +17.2 +16.2 94 +18 +18 1010.0 999.6
03 24.06 З 2 10 км 8/6 600 м
[Sc Ci sp]
+20.5 +18.0 86 +25 +27 комфорт 1011.1 1000.8 +17.2 8
06 24.06 З 3 10 км 4/3 600 м
[Sc Ci sp]
+25.0 +18.0 65 +29 +37 душно 1011.1 1000.9
09 24.06 З 3 10 км 8/8 600 м
[Cb cap]
+26.6 +13.5 44 +29 +31 жарко 1010.9 1000.8
12 24.06 СЗ 2 10 км 8/8 600 м
[Cb cap]
+27.6 +10.3 34 +28 +30 жарко 1010.9 1000.7
15 24.06 СЗ 2 10 км 6/4 600 м
[Cb cap Ci sp]
+26.6 +9.9 35 +27 +27 жарко 1011.3 1001.1 +29.2
18 24.06 штиль 0 10 км 6/6 600 м
[Cb cap]
+18.6 +13.7 73 +19 +19 1012.7 1002.2
21 24.06 штиль 0 10 км 8/8 600 м
[Cb cap]
+16.6 +12.1 75 +17 +17 1012.8 1002.2
00 25.06 штиль 0 10 км 10/10 600 м
[Cb cap]
+15.2 +12.0 81 +15 +15 1011.9 1001.4
03 25.06 СВ 2 10 км слаб. ливневой дождь 10/10 600 м
[Cb cap]
+16.4 +12.0 75 +17 +17 1011.8 1001.2 +14.7 0.4
06 25.06 В 2 10 км {ливн. осадки} 10/10 600 м
[Cb cap]
+18.5 +13.2 71 +20 +20 1011.2 1000.8
09 25.06 СВ 4 10 км {ливн. осадки} 10/10 600 м
[Cb cap]
+20.2 +13.9 67 +22 +22 комфорт 1010.4 1000.1
12 25.06 СВ 4-10
{10}
10 км {ливн. осадки} 8/6 600 м
[Cb cap Ci sp]
+18.6 +12.1 66 +19 +21 1010.1 999.7
15 25.06 С 3
{10}
10 км 10/10 600 м
[Cb cap]
+15.8 +11.6 76 +15 +15 1011.6 1001.1 +20.3 0.0

 

Местоположение метеостанции Шадринск (Курганская область, Россия): широта 56.07 долгота 63.65 высота над уровнем моря 89 м.

В архиве по умолчанию представлена погода в Шадринске за последнюю неделю. Архивные данные за месяц целиком и за предыдущие месяцы, начиная с января 2011 года, Вы можете получить, выбрав интересующий диапазон дат из раскрывающегося списка и нажав кнопку "Ввод!".


*Определитесь, кто Вы:
робот инопланетянин человек

Внимание! Время в таблицах - всемирное. Для получения местного времени необходимо прибавить поправку, которая равна 5 ч.

Смотрите также архив погоды в соседних городах и на ближайших метеорологических станциях:

Погода в Далматово (Курганская область, Россия) (50 км)
Погода в Бутке (Свердловская область, Россия) (73 км)
Погода в Шатрово (Курганская область, Россия) (79 км)
Погода в Шумихе (Курганская область, Россия) (96 км)
Погода в Камышлове (Свердловская область, Россия) (104 км)
Погода в Бродокалмаке (Челябинская область, Россия) (113 км)
Погода в Исетском (Тюменская область, Россия) (113 км)
Погода в Каменск-Уральском (Свердловская область, Россия) (117 км)
Погода в Памятном (Курганская область, Россия) (127 км)
Погода в Тугулыме (Свердловская область, Россия) (128 км)

Пояснения к столбцам:

Ветер - указаны скорость ветра в м/с - средняя за 10 мин, порывы в срок и между сроками (в фигурных скобках) и направление, откуда дует ветер: С - северный, СВ - северо-восточный, В - восточный, ЮВ - юго-восточный, Ю - южный, ЮЗ - юго-западный, З - западный, СЗ - северо-западный.
Видимость - горизонтальная дальность видимости в метрах или километрах. При видимости от 1 до 10 км при отсутствии осадков обычно наблюдается дымка, при ухудшении видимости до 1 км и менее - туман. В сухую погоду видимость может ухудшаться дымом, пылью или мглою.
Явления - указаны атмосферные явления, наблюдавшиеся в срок или в последний час перед сроком; фигурными скобками обозначены явления, наблюдавшиеся между сроками (за 1-3 часа до срока); квадратными скобками обозначены град или гололедные отложения с указанием их диаметра в мм.
Облачность - указаны через наклонную черту общая и нижняя облачность в баллах и высота нижней границы облаков в метрах; квадратными скобками обозначены формы облаков: Ci - перистые, Cs - перисто-слоистые, Cc - перисто-кучевые, Ac - высококучевые, As - высокослоистые, Sc - слоисто-кучевые, Ns - слоисто-дождевые, Cu - кучевые, Cb - кучево-дождевые. Подробнее классификацию облаков см. в Атласе облаков (PDF).
T - Температура воздуха - температура, измеренная на высоте 2 м над землей.
Td - Температура точки росы - температура, при понижении до которой содержащийся в воздухе водяной пар достигнет насыщения.
f - Относительная влажность воздуха - влажноcть воздуха, измеренная на высоте 2 м над землей.
Te - Эффективная температура - температура, которую ощущает одетый по сезону человек в тени. Характеристика душности погоды. При расчете учитывается влияние влажности воздуха и скорости ветра на теплоощущения человека.
Tes - Эффективная температура на солнце - температура, которую ощущает человек, с поправкой на солнечный нагрев. Характеристика знойности погоды. Зависит от высоты солнца над горизонтом, облачности и скорости ветра. Ночью, в пасмурную погоду, а также при ветре 12 м/с и более поправка равна нулю.
P - Атмосферное давление - приведенное к уровню моря атмосферное давление.
Po - Атмосферное давление - измеренное на уровне метеостанции атмосферное давление.
Tmin - Минимальная температура - минимум температуры воздуха на высоте 2 м над землей.
Tmax - Максимальная температура - максимум температуры воздуха на высоте 2 м над землей.
R - Количество осадков - Количество выпавших осадков за период времени, мм. При наведении курсора мыши на число - период времени, за который выпало указанное количество осадков.
R24 - Количество осадков - Количество выпавших осадков за 24 часа, мм.
S - Снежный покров - Высота снежного покрова, см. При наведении курсора мыши на число - состояние снежного покрова и степень покрытия местности в баллах.